Location: Caltech
(34.1382°N, 118.1253°W)
Time: 14:06:04
(UTC-07:00)

Iridium 91 - Visible Passes

Search period start: 23 April 2018 00:00
Search period end: 03 May 2018 00:00
Orbit: 775 x 779 km, 86.4° (Epoch: 23 April)

Date Brightness Start Highest point End Pass type
(mag) Time Alt. Az. Time Alt. Az. Time Alt. Az.
23 Apr 7.4 19:54:37 10° E 19:56:03 11° ENE 19:57:29 10° ENE visible
23 Apr 5.8 21:33:00 25° SSW 21:36:04 66° W 21:41:16 10° N visible
24 Apr 5.5 20:58:41 18° SSE 21:02:35 64° E 21:07:44 10° N visible
24 Apr 8.3 22:42:01 10° W 22:43:43 11° WNW 22:45:25 10° WNW visible
25 Apr 6.2 20:24:36 10° SSE 20:29:12 33° E 20:33:48 10° NNE visible
25 Apr 7.7 22:05:50 10° SW 22:09:54 23° W 22:13:57 10° NNW visible
26 Apr 7.0 19:52:38 10° ESE 19:55:56 17° E 19:59:12 10° NE visible
26 Apr 6.6 21:31:16 10° SSW 21:36:12 43° W 21:41:10 10° NNW visible
27 Apr 5.5 20:57:25 10° S 21:02:38 85° W 21:07:52 10° N visible
28 Apr 5.8 20:24:12 10° SSE 20:29:11 49° E 20:34:11 10° NNE visible
28 Apr 8.2 22:07:09 10° WSW 22:10:08 15° WNW 22:13:08 10° NW visible
29 Apr 7.4 21:31:53 10° SW 21:36:22 29° W 21:40:53 10° NNW visible
30 Apr 6.2 20:57:37 10° SSW 21:02:44 57° W 21:07:51 10° N visible
01 May 5.5 20:24:02 10° S 20:29:12 74° E 20:34:25 10° N visible
02 May 8.0 21:32:50 10° SW 21:36:34 20° W 21:40:20 10° NNW visible
